contact:dominique.lefevre@mio.osupytheas.fr, maurice.libes@osupytheas.fr, didier.mallarino@osupytheas.fr
Project:EMSO http://www.emso-fr.org/EMSO-France
Depth: 2436.0 m
Title:EMSO Ligure Ouest : Data MII capteur AQUADOPP
Date,Latitude,Longitude,X_East,Y_North,Z_Up,Amplitude_X,Amplitude_Y,Amplitude_Z,Batterie,SoundSpeed,Heading,Pitch,Roll,Pressure,TIS,Speed,Direction
, degrees North, degrees East, m.s-1, m.s-1,m.s-1, 1, 1, 1, Volt, m.s-1, degree, degree, degree, dbar, degree_C, m.s-1, degree
2021-05-16T00:04:03,42.805,6.029,-0.089,-0.017,-0.028,103.0,102.0,100.0,13.4,1505.2,327.1,-0.8,1.8,2470.562,13.28,0.09,259.2
2021-05-16T00:07:03,42.805,6.029,-0.074,-0.021,0.009,102.0,103.0,100.0,13.4,1505.2,325.7,-0.7,1.9,2470.543,13.28,0.076,254.2
2021-05-16T00:10:03,42.805,6.029,-0.071,-0.047,-0.02,105.0,101.0,100.0,13.3,1505.2,326.0,-0.8,1.8,2470.562,13.28,0.085,236.5
2021-05-16T00:13:03,42.805,6.029,-0.044,-0.036,-0.006,102.0,104.0,102.0,13.4,1505.2,324.9,-0.7,1.9,2470.536,13.28,0.056,230.7
2021-05-16T00:16:03,42.805,6.029,-0.064,-0.038,-0.051,104.0,103.0,101.0,13.4,1505.2,324.6,-0.8,1.8,2470.526,13.28,0.074,239.3
2021-05-16T00:19:03,42.805,6.029,-0.052,-0.005,-0.016,102.0,102.0,101.0,13.4,1505.2,329.5,-0.8,1.8,2470.514,13.28,0.052,264.5
2021-05-16T00:22:03,42.805,6.029,-0.048,-0.032,-0.015,104.0,103.0,99.0,13.4,1505.2,325.8,-0.8,1.8,2470.508,13.28,0.057,236.3
2021-05-16T00:25:03,42.805,6.029,-0.046,-0.014,-0.007,103.0,102.0,101.0,13.4,1505.2,325.4,-0.8,1.9,2470.522,13.28,0.048,253.1
2021-05-16T00:28:03,42.805,6.029,-0.059,-0.023,-0.025,104.0,102.0,101.0,13.4,1505.2,329.2,-0.8,1.8,2470.518,13.28,0.063,248.7
2021-05-16T00:31:03,42.805,6.029,-0.068,-0.021,0.007,102.0,102.0,101.0,13.4,1505.2,328.2,-0.8,1.8,2470.504,13.28,0.071,252.8
2021-05-16T00:34:03,42.805,6.029,-0.07,-0.03,0.0,103.0,102.0,101.0,13.4,1505.2,329.1,-0.8,1.9,2470.526,13.28,0.076,246.8
2021-05-16T00:37:03,42.805,6.029,-0.075,-0.026,-0.004,103.0,102.0,101.0,13.3,1505.2,327.7,-0.7,1.8,2470.507,13.28,0.079,250.9
2021-05-16T00:40:03,42.805,6.029,-0.061,-0.019,-0.036,102.0,103.0,100.0,13.3,1505.2,329.7,-0.8,1.8,2470.487,13.28,0.063,252.7
2021-05-16T00:43:03,42.805,6.029,-0.082,-0.04,-0.053,102.0,102.0,100.0,13.4,1505.2,324.8,-0.7,1.8,2470.49,13.28,0.091,244.0
2021-05-16T00:46:03,42.805,6.029,-0.061,-0.022,0.0,102.0,102.0,100.0,13.4,1505.2,327.0,-0.8,1.8,2470.542,13.28,0.064,250.2
2021-05-16T00:49:03,42.805,6.029,-0.073,-0.031,0.002,103.0,103.0,99.0,13.3,1505.2,326.8,-0.7,1.8,2470.507,13.28,0.079,247.0
2021-05-16T00:52:03,42.805,6.029,-0.047,-0.018,0.0,103.0,102.0,101.0,13.4,1505.2,326.8,-0.7,1.8,2470.53,13.28,0.05,249.0
2021-05-16T00:55:03,42.805,6.029,-0.072,-0.014,0.004,103.0,102.0,101.0,13.4,1505.2,329.1,-0.8,1.8,2470.511,13.28,0.073,259.0
2021-05-16T00:58:03,42.805,6.029,-0.082,-0.046,-0.052,103.0,101.0,101.0,13.3,1505.2,326.1,-0.8,1.8,2470.482,13.28,0.094,240.7
2021-05-16T01:04:03,42.805,6.029,-0.093,-0.024,-0.052,102.0,102.0,100.0,13.3,1505.2,325.7,-0.7,1.8,2470.573,13.28,0.096,255.5
2021-05-16T01:07:03,42.805,6.029,-0.062,-0.033,-0.034,102.0,102.0,101.0,13.4,1505.2,328.8,-0.8,1.8,2470.459,13.28,0.07,242.0
2021-05-16T01:10:03,42.805,6.029,-0.069,-0.013,0.008,104.0,100.0,100.0,13.4,1505.2,327.6,-0.7,1.8,2470.48,13.28,0.07,259.3
2021-05-16T01:13:03,42.805,6.029,-0.092,-0.044,-0.034,102.0,103.0,101.0,13.4,1505.2,326.1,-0.8,1.8,2470.489,13.28,0.101,244.4
2021-05-16T01:16:03,42.805,6.029,-0.078,-0.011,-0.026,101.0,102.0,100.0,13.4,1505.2,328.1,-0.8,1.8,2470.498,13.28,0.078,262.0
2021-05-16T01:19:03,42.805,6.029,-0.053,-0.024,-0.021,100.0,103.0,101.0,13.4,1505.2,327.4,-0.8,1.9,2470.517,13.28,0.058,245.6
2021-05-16T01:22:03,42.805,6.029,-0.047,-0.029,-0.025,102.0,102.0,101.0,13.3,1505.2,329.5,-0.8,1.8,2470.497,13.28,0.055,238.3
2021-05-16T01:25:03,42.805,6.029,-0.037,-0.048,-0.031,101.0,102.0,100.0,13.4,1505.2,327.7,-0.7,1.8,2470.513,13.28,0.06,217.6
2021-05-16T01:28:03,42.805,6.029,-0.07,-0.033,-0.028,102.0,103.0,99.0,13.4,1505.2,325.0,-0.7,1.8,2470.526,13.28,0.077,244.8
2021-05-16T01:31:03,42.805,6.029,-0.06,-0.019,0.006,100.0,101.0,101.0,13.3,1505.2,327.4,-0.8,1.8,2470.503,13.28,0.062,252.4
2021-05-16T01:34:03,42.805,6.029,-0.037,-0.037,-0.015,102.0,101.0,101.0,13.3,1505.2,328.7,-0.7,1.8,2470.473,13.28,0.052,225.0
2021-05-16T01:37:03,42.805,6.029,-0.065,-0.042,-0.022,100.0,102.0,101.0,13.4,1505.2,327.5,-0.7,1.8,2470.5,13.28,0.077,237.1
2021-05-16T01:40:03,42.805,6.029,-0.045,-0.033,-0.012,103.0,101.0,101.0,13.4,1505.2,326.7,-0.8,1.8,2470.496,13.28,0.055,233.7
2021-05-16T01:43:03,42.805,6.029,-0.062,-0.042,-0.028,102.0,102.0,100.0,13.4,1505.2,326.1,-0.8,1.8,2470.498,13.28,0.074,235.9
2021-05-16T01:46:03,42.805,6.029,-0.079,-0.018,-0.018,101.0,100.0,101.0,13.4,1505.2,325.4,-0.8,1.8,2470.485,13.28,0.081,257.2
2021-05-16T01:49:03,42.805,6.029,-0.075,-0.007,0.014,102.0,100.0,100.0,13.3,1505.2,329.0,-0.7,1.8,2470.46,13.28,0.075,264.7
2021-05-16T01:52:03,42.805,6.029,-0.075,-0.014,-0.006,101.0,101.0,101.0,13.4,1505.2,329.3,-0.8,1.8,2470.48,13.28,0.076,259.4
2021-05-16T01:55:03,42.805,6.029,-0.063,-0.045,-0.052,102.0,101.0,101.0,13.4,1505.2,327.5,-0.8,1.8,2470.485,13.28,0.077,234.5
2021-05-16T01:58:03,42.805,6.029,-0.07,-0.008,-0.012,103.0,101.0,100.0,13.4,1505.2,329.6,-0.7,1.8,2470.49,13.28,0.07,263.5
2021-05-16T02:04:03,42.805,6.029,-0.087,-0.007,-0.008,101.0,101.0,100.0,13.4,1505.2,329.4,-0.7,1.8,2470.492,13.28,0.087,265.4
2021-05-16T02:07:03,42.805,6.029,-0.056,-0.026,-0.018,101.0,102.0,101.0,13.4,1505.2,327.9,-0.8,1.8,2470.487,13.28,0.061,245.1
2021-05-16T02:10:03,42.805,6.029,-0.055,-0.035,-0.016,101.0,101.0,102.0,13.3,1505.2,325.3,-0.7,1.8,2470.467,13.28,0.065,237.5
2021-05-16T02:13:03,42.805,6.029,-0.052,-0.037,-0.016,102.0,99.0,100.0,13.4,1505.2,325.5,-0.7,1.8,2470.463,13.28,0.063,234.6
2021-05-16T02:16:03,42.805,6.029,-0.076,-0.022,-0.031,102.0,100.0,100.0,13.4,1505.2,326.1,-0.8,1.8,2470.476,13.28,0.079,253.9
2021-05-16T02:19:03,42.805,6.029,-0.067,-0.023,0.013,102.0,101.0,100.0,13.4,1505.2,325.3,-0.8,1.8,2470.495,13.28,0.07,251.1
2021-05-16T02:22:03,42.805,6.029,-0.085,-0.027,-0.011,103.0,100.0,99.0,13.4,1505.2,327.5,-0.7,1.8,2470.466,13.28,0.089,252.4
2021-05-16T02:25:03,42.805,6.029,-0.056,-0.036,-0.037,102.0,102.0,99.0,13.4,1505.2,324.9,-0.8,1.8,2470.465,13.28,0.066,237.3
2021-05-16T02:28:03,42.805,6.029,-0.08,-0.025,-0.026,102.0,101.0,100.0,13.3,1505.2,327.0,-0.7,1.8,2470.435,13.28,0.083,252.6
2021-05-16T02:31:03,42.805,6.029,-0.064,-0.021,-0.011,102.0,101.0,99.0,13.3,1505.2,324.1,-0.8,1.8,2470.476,13.28,0.067,251.8
2021-05-16T02:34:03,42.805,6.029,-0.058,-0.018,-0.029,101.0,101.0,100.0,13.4,1505.2,325.6,-0.8,1.8,2470.495,13.28,0.06,252.8
2021-05-16T02:37:03,42.805,6.029,-0.059,-0.019,-0.019,102.0,102.0,99.0,13.4,1505.2,325.4,-0.8,1.8,2470.468,13.28,0.061,252.2
2021-05-16T02:40:03,42.805,6.029,-0.042,-0.026,0.001,102.0,101.0,100.0,13.4,1505.2,327.5,-0.7,1.8,2470.505,13.28,0.049,238.2
2021-05-16T02:43:03,42.805,6.029,-0.07,-0.018,-0.025,102.0,101.0,100.0,13.3,1505.2,328.7,-0.8,1.8,2470.441,13.28,0.072,255.6
2021-05-16T02:46:03,42.805,6.029,-0.066,-0.026,-0.024,102.0,101.0,100.0,13.4,1505.2,327.8,-0.7,1.8,2470.451,13.28,0.07,248.5
2021-05-16T02:49:03,42.805,6.029,-0.072,-0.038,-0.016,101.0,100.0,100.0,13.3,1505.2,327.0,-0.8,1.8,2470.484,13.28,0.081,242.2
2021-05-16T02:52:03,42.805,6.029,-0.074,-0.023,-0.007,101.0,101.0,100.0,13.4,1505.2,326.6,-0.8,1.8,2470.46,13.28,0.077,252.7
2021-05-16T02:55:03,42.805,6.029,-0.064,-0.037,-0.021,101.0,101.0,100.0,13.4,1505.2,326.2,-0.7,1.8,2470.482,13.28,0.073,240.0
2021-05-16T02:58:03,42.805,6.029,-0.088,-0.009,-0.01,102.0,100.0,100.0,13.4,1505.2,329.5,-0.7,1.8,2470.439,13.28,0.088,264.2
2021-05-16T03:04:03,42.805,6.029,-0.052,-0.014,0.001,101.0,101.0,100.0,13.4,1505.2,329.5,-0.8,1.8,2470.468,13.28,0.053,254.9
2021-05-16T03:07:03,42.805,6.029,-0.069,0.004,0.0,102.0,101.0,100.0,13.3,1505.2,326.3,-0.8,1.8,2470.467,13.28,0.069,273.3
2021-05-16T03:10:03,42.805,6.029,-0.054,-0.009,-0.002,103.0,101.0,100.0,13.3,1505.2,327.5,-0.8,1.8,2470.423,13.28,0.054,260.5
2021-05-16T03:13:03,42.805,6.029,-0.071,0.003,0.018,102.0,101.0,100.0,13.3,1505.2,328.1,-0.8,1.8,2470.41,13.28,0.071,272.4
2021-05-16T03:16:03,42.805,6.029,-0.074,-0.038,-0.02,100.0,102.0,99.0,13.4,1505.2,329.0,-0.8,1.8,2470.439,13.28,0.083,242.8
2021-05-16T03:19:03,42.805,6.029,-0.091,-0.046,-0.03,103.0,101.0,100.0,13.3,1505.2,325.0,-0.8,1.8,2470.448,13.28,0.101,243.2
2021-05-16T03:22:03,42.805,6.029,-0.079,-0.032,-0.059,102.0,100.0,100.0,13.3,1505.2,325.4,-0.7,1.8,2470.447,13.28,0.085,248.0
2021-05-16T03:25:03,42.805,6.029,-0.06,-0.032,-0.047,102.0,101.0,100.0,13.4,1505.2,325.8,-0.7,1.8,2470.401,13.28,0.067,241.9
2021-05-16T03:28:03,42.805,6.029,-0.058,-0.017,-0.001,100.0,101.0,100.0,13.3,1505.2,327.9,-0.8,1.8,2470.453,13.28,0.06,253.7
2021-05-16T03:31:03,42.805,6.029,-0.089,-0.027,-0.065,103.0,102.0,98.0,13.3,1505.2,328.0,-0.8,1.9,2470.464,13.28,0.093,253.1
2021-05-16T03:34:03,42.805,6.029,-0.054,-0.024,-0.034,102.0,101.0,100.0,13.4,1505.2,325.5,-0.8,1.8,2470.413,13.28,0.059,246.0
2021-05-16T03:37:03,42.805,6.029,-0.073,-0.026,-0.004,101.0,102.0,100.0,13.4,1505.2,323.9,-0.7,1.8,2470.447,13.28,0.077,250.4
2021-05-16T03:40:03,42.805,6.029,-0.076,-0.031,-0.061,101.0,100.0,100.0,13.3,1505.2,326.1,-0.8,1.8,2470.414,13.28,0.082,247.8
2021-05-16T03:43:03,42.805,6.029,-0.069,-0.019,-0.035,102.0,100.0,99.0,13.4,1505.2,327.6,-0.7,1.8,2470.415,13.28,0.071,254.6
2021-05-16T03:46:03,42.805,6.029,-0.067,-0.015,-0.011,102.0,101.0,101.0,13.3,1505.2,325.5,-0.7,1.8,2470.432,13.28,0.068,257.4
2021-05-16T03:49:03,42.805,6.029,-0.071,-0.028,-0.023,102.0,101.0,100.0,13.4,1505.2,325.2,-0.8,1.8,2470.431,13.28,0.076,248.5
2021-05-16T03:52:03,42.805,6.029,-0.074,0.0,0.0,101.0,102.0,100.0,13.3,1505.2,325.5,-0.7,1.8,2470.407,13.28,0.073,270.0
2021-05-16T03:55:03,42.805,6.029,-0.066,-0.021,-0.025,100.0,102.0,100.0,13.3,1505.2,327.7,-0.7,1.8,2470.461,13.28,0.069,252.4
2021-05-16T03:58:03,42.805,6.029,-0.071,-0.006,0.0,101.0,100.0,100.0,13.4,1505.2,326.3,-0.7,1.8,2470.442,13.28,0.071,265.2
2021-05-16T04:04:03,42.805,6.029,-0.073,-0.01,-0.023,101.0,101.0,100.0,13.3,1505.2,328.9,-0.8,1.8,2470.43,13.28,0.073,262.2
2021-05-16T04:07:03,42.805,6.029,-0.052,-0.039,-0.031,102.0,101.0,100.0,13.4,1505.2,326.9,-0.7,1.9,2470.401,13.28,0.064,233.1
2021-05-16T04:10:03,42.805,6.029,-0.079,-0.022,-0.019,103.0,101.0,100.0,13.4,1505.2,325.6,-0.8,1.8,2470.411,13.28,0.082,254.4
2021-05-16T04:13:03,42.805,6.029,-0.08,0.0,-0.016,101.0,103.0,100.0,13.4,1505.2,325.7,-0.8,1.8,2470.505,13.28,0.079,270.0
2021-05-16T04:16:03,42.805,6.029,-0.071,-0.023,-0.013,102.0,100.0,99.0,13.3,1505.2,325.2,-0.7,1.8,2470.401,13.28,0.074,252.1
2021-05-16T04:19:03,42.805,6.029,-0.067,0.0,-0.01,101.0,101.0,99.0,13.4,1505.2,328.1,-0.8,1.8,2470.42,13.28,0.066,270.0
2021-05-16T04:22:03,42.805,6.029,-0.059,-0.027,-0.024,102.0,101.0,100.0,13.4,1505.2,327.1,-0.8,1.8,2470.446,13.28,0.064,245.4
2021-05-16T04:25:03,42.805,6.029,-0.07,-0.009,-0.015,102.0,102.0,100.0,13.3,1505.2,325.7,-0.8,1.8,2470.429,13.28,0.07,262.7
2021-05-16T04:28:03,42.805,6.029,-0.05,-0.026,-0.028,102.0,101.0,99.0,13.4,1505.2,328.1,-0.8,1.8,2470.468,13.28,0.056,242.5
2021-05-16T04:31:03,42.805,6.029,-0.072,-0.022,-0.014,101.0,103.0,99.0,13.3,1505.2,327.9,-0.7,1.8,2470.423,13.28,0.075,253.0
2021-05-16T04:34:03,42.805,6.029,-0.069,-0.028,-0.033,102.0,102.0,100.0,13.4,1505.2,325.3,-0.7,1.8,2470.407,13.28,0.074,247.9
2021-05-16T04:37:03,42.805,6.029,-0.055,-0.039,-0.018,101.0,101.0,100.0,13.3,1505.2,324.2,-0.7,1.8,2470.437,13.28,0.067,234.7
2021-05-16T04:40:03,42.805,6.029,-0.058,-0.047,-0.028,102.0,101.0,100.0,13.3,1505.2,326.8,-0.7,1.9,2470.432,13.28,0.074,231.0
2021-05-16T04:43:03,42.805,6.029,-0.055,-0.028,-0.016,103.0,101.0,100.0,13.4,1505.2,326.5,-0.7,1.9,2470.419,13.28,0.061,243.0
2021-05-16T04:46:03,42.805,6.029,-0.062,-0.008,-0.021,103.0,100.0,100.0,13.4,1505.2,328.2,-0.8,1.9,2470.405,13.28,0.062,262.7
2021-05-16T04:49:03,42.805,6.029,-0.06,-0.024,-0.023,101.0,101.0,100.0,13.4,1505.2,326.5,-0.8,1.8,2470.413,13.28,0.064,248.2
2021-05-16T04:52:03,42.805,6.029,-0.073,-0.01,-0.014,101.0,101.0,100.0,13.4,1505.2,326.3,-0.7,1.9,2470.43,13.28,0.073,262.2
2021-05-16T04:55:03,42.805,6.029,-0.06,-0.025,-0.004,103.0,100.0,101.0,13.4,1505.2,325.1,-0.7,1.8,2470.382,13.28,0.064,247.4
2021-05-16T04:58:03,42.805,6.029,-0.051,0.007,-0.02,101.0,102.0,100.0,13.4,1505.2,327.8,-0.7,1.8,2470.438,13.28,0.051,277.8
2021-05-16T05:04:03,42.805,6.029,-0.071,-0.032,-0.044,102.0,102.0,100.0,13.4,1505.2,326.0,-0.8,1.8,2470.464,13.28,0.077,245.7
2021-05-16T05:07:03,42.805,6.029,-0.044,-0.016,0.002,104.0,102.0,100.0,13.3,1505.2,326.1,-0.8,1.8,2470.416,13.28,0.046,250.0
2021-05-16T05:10:03,42.805,6.029,-0.065,-0.017,-0.034,101.0,101.0,99.0,13.3,1505.2,329.5,-0.7,1.8,2470.443,13.28,0.067,255.3
2021-05-16T05:13:03,42.805,6.029,-0.074,-0.016,0.004,102.0,101.0,100.0,13.4,1505.2,327.6,-0.7,1.8,2470.418,13.28,0.075,257.8
2021-05-16T05:16:03,42.805,6.029,-0.044,-0.018,-0.004,102.0,102.0,100.0,13.4,1505.2,328.2,-0.7,1.8,2470.445,13.28,0.047,247.8
2021-05-16T05:19:03,42.805,6.029,-0.064,-0.007,-0.036,102.0,102.0,100.0,13.4,1505.2,325.9,-0.8,1.9,2470.468,13.28,0.064,263.8
2021-05-16T05:22:03,42.805,6.029,-0.05,-0.008,-0.012,102.0,101.0,100.0,13.4,1505.2,324.3,-0.8,1.8,2470.435,13.28,0.05,260.9
2021-05-16T05:25:03,42.805,6.029,-0.041,-0.006,-0.023,102.0,102.0,101.0,13.3,1505.2,327.4,-0.8,1.8,2470.423,13.28,0.041,261.7
2021-05-16T05:28:03,42.805,6.029,-0.055,-0.033,-0.019,102.0,102.0,99.0,13.3,1505.2,327.4,-0.8,1.9,2470.436,13.28,0.064,239.0
2021-05-16T05:31:03,42.805,6.029,-0.063,-0.012,-0.03,102.0,102.0,99.0,13.4,1505.2,324.1,-0.8,1.8,2470.408,13.28,0.064,259.2
2021-05-16T05:34:03,42.805,6.029,-0.075,-0.021,-0.045,101.0,101.0,101.0,13.4,1505.2,325.8,-0.8,1.8,2470.436,13.28,0.077,254.4
2021-05-16T05:37:03,42.805,6.029,-0.063,-0.027,-0.042,101.0,100.0,100.0,13.4,1505.2,324.6,-0.7,1.8,2470.384,13.28,0.068,246.8
2021-05-16T05:40:03,42.805,6.029,-0.073,-0.011,-0.044,102.0,102.0,100.0,13.3,1505.2,324.7,-0.8,1.8,2470.418,13.28,0.073,261.4
2021-05-16T05:43:03,42.805,6.029,-0.052,-0.012,-0.028,100.0,103.0,99.0,13.3,1505.2,325.4,-0.8,1.8,2470.438,13.28,0.053,257.0
2021-05-16T05:46:03,42.805,6.029,-0.043,-0.006,0.013,103.0,101.0,100.0,13.4,1505.2,327.9,-0.8,1.8,2470.391,13.28,0.043,262.1
2021-05-16T05:49:03,42.805,6.029,-0.047,-0.013,-0.012,99.0,102.0,102.0,13.4,1505.2,328.5,-0.8,1.8,2470.438,13.28,0.048,254.5
2021-05-16T05:52:03,42.805,6.029,-0.057,-0.018,-0.027,103.0,101.0,101.0,13.4,1505.2,328.0,-0.8,1.8,2470.447,13.28,0.059,252.5
2021-05-16T05:55:03,42.805,6.029,-0.051,-0.016,-0.012,102.0,102.0,101.0,13.3,1505.2,324.4,-0.7,1.8,2470.459,13.28,0.053,252.6
2021-05-16T05:58:03,42.805,6.029,-0.063,-0.015,0.026,102.0,101.0,99.0,13.4,1505.2,324.7,-0.7,1.8,2470.436,13.28,0.064,256.6
2021-05-16T06:04:03,42.805,6.029,-0.076,-0.015,-0.008,101.0,102.0,100.0,13.4,1505.2,325.5,-0.7,1.9,2470.437,13.28,0.077,258.8
2021-05-16T06:07:03,42.805,6.029,-0.068,-0.018,-0.003,102.0,104.0,100.0,13.4,1505.2,328.4,-0.7,1.8,2470.481,13.28,0.07,255.2
2021-05-16T06:10:03,42.805,6.029,-0.047,0.01,-0.031,102.0,101.0,99.0,13.4,1505.2,327.3,-0.7,1.8,2470.457,13.28,0.048,282.0
2021-05-16T06:13:03,42.805,6.029,-0.033,-0.035,-0.004,101.0,102.0,101.0,13.3,1505.2,328.1,-0.8,1.8,2470.435,13.28,0.048,223.3
2021-05-16T06:16:03,42.805,6.029,-0.053,-0.025,-0.014,103.0,100.0,100.0,13.3,1505.2,327.0,-0.8,1.8,2470.473,13.28,0.058,244.7
2021-05-16T06:19:03,42.805,6.029,-0.072,-0.023,-0.042,102.0,101.0,100.0,13.3,1505.2,327.7,-0.7,1.8,2470.432,13.28,0.075,252.3
2021-05-16T06:22:03,42.805,6.029,-0.064,-0.017,-0.008,100.0,100.0,102.0,13.4,1505.2,327.2,-0.7,1.8,2470.449,13.28,0.066,255.1
2021-05-16T06:25:03,42.805,6.029,-0.064,-0.006,-0.01,100.0,102.0,100.0,13.4,1505.2,329.8,-0.8,1.9,2470.445,13.28,0.064,264.6
2021-05-16T06:28:03,42.805,6.029,-0.062,-0.022,0.002,101.0,102.0,100.0,13.4,1505.2,326.5,-0.7,1.8,2470.431,13.28,0.065,250.5
2021-05-16T06:31:03,42.805,6.029,-0.059,-0.03,0.006,102.0,102.0,101.0,13.4,1505.2,329.1,-0.8,1.8,2470.433,13.28,0.066,243.1
2021-05-16T06:34:03,42.805,6.029,-0.048,-0.002,0.004,102.0,101.0,101.0,13.4,1505.2,328.1,-0.7,1.9,2470.46,13.28,0.048,267.6
2021-05-16T06:37:03,42.805,6.029,-0.067,-0.025,0.008,101.0,101.0,100.0,13.4,1505.2,325.1,-0.7,1.8,2470.417,13.28,0.071,249.5
2021-05-16T06:40:03,42.805,6.029,-0.068,-0.03,0.0,102.0,101.0,101.0,13.4,1505.2,324.9,-0.7,1.8,2470.466,13.28,0.074,246.2
2021-05-16T06:43:03,42.805,6.029,-0.054,-0.023,-0.038,101.0,101.0,100.0,13.4,1505.2,328.9,-0.8,1.8,2470.452,13.28,0.058,246.9
2021-05-16T06:46:03,42.805,6.029,-0.069,-0.01,-0.023,102.0,99.0,101.0,13.4,1505.2,327.2,-0.8,1.8,2470.455,13.28,0.069,261.8
2021-05-16T06:49:03,42.805,6.029,-0.045,-0.015,0.007,101.0,102.0,100.0,13.3,1505.2,327.4,-0.7,1.9,2470.506,13.28,0.047,251.6
2021-05-16T06:52:03,42.805,6.029,-0.063,-0.015,-0.022,101.0,102.0,100.0,13.3,1505.2,327.6,-0.7,1.8,2470.476,13.28,0.064,256.6
2021-05-16T06:55:03,42.805,6.029,-0.05,-0.034,-0.037,101.0,101.0,100.0,13.3,1505.2,325.3,-0.7,1.8,2470.45,13.28,0.06,235.8
2021-05-16T06:58:03,42.805,6.029,-0.047,-0.005,-0.001,102.0,100.0,101.0,13.3,1505.2,327.6,-0.8,1.8,2470.487,13.28,0.047,263.9
2021-05-16T07:04:03,42.805,6.029,-0.047,-0.048,-0.088,102.0,102.0,100.0,13.4,1505.2,326.8,-0.8,1.8,2470.519,13.28,0.067,224.4
2021-05-16T07:07:03,42.805,6.029,-0.064,-0.012,-0.001,102.0,101.0,101.0,13.4,1505.2,324.4,-0.8,1.8,2470.498,13.28,0.065,259.4
2021-05-16T07:10:03,42.805,6.029,-0.035,-0.024,-0.001,102.0,101.0,100.0,13.4,1505.2,327.6,-0.8,1.8,2470.453,13.28,0.042,235.6
2021-05-16T07:13:03,42.805,6.029,-0.059,-0.019,-0.025,102.0,103.0,100.0,13.4,1505.2,326.0,-0.8,1.8,2470.511,13.28,0.061,252.2
2021-05-16T07:16:03,42.805,6.029,-0.066,-0.028,-0.042,103.0,102.0,100.0,13.4,1505.2,324.0,-0.7,1.8,2470.451,13.28,0.071,247.0
2021-05-16T07:19:03,42.805,6.029,-0.049,-0.02,-0.009,101.0,100.0,101.0,13.3,1505.2,326.0,-0.7,1.8,2470.464,13.28,0.052,247.8
2021-05-16T07:22:03,42.805,6.029,-0.067,-0.01,-0.036,102.0,102.0,102.0,13.4,1505.2,326.7,-0.8,1.8,2470.506,13.28,0.067,261.5
2021-05-16T07:25:03,42.805,6.029,-0.078,0.005,0.02,103.0,100.0,100.0,13.4,1505.2,327.4,-0.7,1.8,2470.456,13.28,0.078,273.7
2021-05-16T07:28:03,42.805,6.029,-0.065,-0.033,0.0,102.0,100.0,101.0,13.4,1505.2,325.5,-0.8,1.8,2470.495,13.28,0.072,243.1
2021-05-16T07:31:03,42.805,6.029,-0.054,0.003,-0.015,103.0,102.0,101.0,13.4,1505.2,329.4,-0.7,1.8,2470.461,13.28,0.054,273.2
2021-05-16T07:34:03,42.805,6.029,-0.039,-0.017,-0.013,101.0,101.0,101.0,13.3,1505.2,325.3,-0.8,1.8,2470.446,13.28,0.042,246.5
2021-05-16T07:37:03,42.805,6.029,-0.057,-0.008,0.017,102.0,101.0,100.0,13.4,1505.2,325.8,-0.7,1.8,2470.443,13.28,0.057,262.0
2021-05-16T07:40:03,42.805,6.029,-0.063,0.008,-0.007,104.0,101.0,100.0,13.4,1505.2,326.3,-0.7,1.8,2470.48,13.28,0.063,277.2
2021-05-16T07:43:03,42.805,6.029,-0.073,-0.034,-0.041,101.0,101.0,101.0,13.3,1505.2,325.9,-0.8,1.8,2470.435,13.28,0.08,245.0
2021-05-16T07:46:03,42.805,6.029,-0.071,-0.032,-0.031,102.0,101.0,101.0,13.4,1505.2,325.7,-0.7,1.8,2470.484,13.28,0.077,245.7
2021-05-16T07:49:03,42.805,6.029,-0.075,-0.002,-0.015,102.0,102.0,101.0,13.4,1505.2,329.0,-0.8,1.9,2470.455,13.28,0.075,268.5
2021-05-16T07:52:03,42.805,6.029,-0.063,-0.018,-0.024,101.0,101.0,101.0,13.4,1505.2,328.2,-0.7,1.8,2470.452,13.28,0.065,254.1
2021-05-16T07:55:03,42.805,6.029,-0.06,-0.021,-0.024,103.0,100.0,100.0,13.4,1505.2,326.5,-0.8,1.8,2470.458,13.28,0.063,250.7
2021-05-16T07:58:03,42.805,6.029,-0.066,-0.015,0.02,103.0,101.0,101.0,13.4,1505.2,326.2,-0.8,1.8,2470.513,13.28,0.067,257.2
2021-05-16T08:04:03,42.805,6.029,-0.064,0.01,-0.007,102.0,101.0,101.0,13.4,1505.2,328.1,-0.8,1.8,2470.515,13.28,0.064,278.9
2021-05-16T08:07:03,42.805,6.029,-0.074,-0.018,-0.009,102.0,102.0,100.0,13.4,1505.2,325.2,-0.7,1.8,2470.478,13.28,0.076,256.3
2021-05-16T08:10:03,42.805,6.029,-0.061,-0.024,-0.02,103.0,103.0,101.0,13.3,1505.2,325.2,-0.7,1.8,2470.495,13.28,0.065,248.5
2021-05-16T08:13:03,42.805,6.029,-0.086,-0.03,-0.017,102.0,102.0,102.0,13.3,1505.2,324.4,-0.7,1.8,2470.472,13.28,0.091,250.8
2021-05-16T08:16:03,42.805,6.029,-0.076,-0.015,-0.03,102.0,102.0,100.0,13.4,1505.2,323.9,-0.8,1.8,2470.478,13.28,0.077,258.8
2021-05-16T08:19:03,42.805,6.029,-0.054,-0.038,-0.019,102.0,102.0,100.0,13.3,1505.2,325.9,-0.8,1.8,2470.495,13.28,0.066,234.9
2021-05-16T08:22:03,42.805,6.029,-0.043,-0.018,-0.011,101.0,102.0,100.0,13.3,1505.2,326.6,-0.8,1.8,2470.47,13.28,0.046,247.3
2021-05-16T08:25:03,42.805,6.029,-0.079,-0.004,-0.036,101.0,102.0,100.0,13.4,1505.2,326.5,-0.7,1.8,2470.511,13.28,0.079,267.1
2021-05-16T08:28:03,42.805,6.029,-0.051,-0.008,-0.041,102.0,101.0,100.0,13.4,1505.2,324.3,-0.8,1.8,2470.505,13.28,0.051,261.1
2021-05-16T08:31:03,42.805,6.029,-0.069,-0.014,-0.037,103.0,100.0,100.0,13.3,1505.2,328.2,-0.8,1.8,2470.52,13.28,0.07,258.5
2021-05-16T08:34:03,42.805,6.029,-0.066,-0.02,0.018,101.0,104.0,103.0,13.4,1505.2,326.4,-0.8,1.8,2470.461,13.28,0.068,253.1
2021-05-16T08:37:03,42.805,6.029,-0.055,-0.028,-0.024,103.0,99.0,100.0,13.4,1505.2,325.6,-0.7,1.8,2470.502,13.28,0.061,243.0
2021-05-16T08:40:03,42.805,6.029,-0.068,-0.019,-0.03,101.0,101.0,101.0,13.4,1505.2,326.9,-0.7,1.8,2470.504,13.28,0.07,254.4
2021-05-16T08:43:03,42.805,6.029,-0.058,0.001,-0.048,103.0,101.0,101.0,13.4,1505.2,327.8,-0.8,1.9,2470.494,13.28,0.058,271.0
2021-05-16T08:46:03,42.805,6.029,-0.043,-0.012,0.005,102.0,102.0,100.0,13.4,1505.2,327.0,-0.8,1.8,2470.536,13.28,0.044,254.4
2021-05-16T08:49:03,42.805,6.029,-0.074,-0.01,0.001,101.0,102.0,101.0,13.4,1505.2,327.8,-0.8,1.8,2470.495,13.28,0.074,262.3
2021-05-16T08:52:03,42.805,6.029,-0.07,-0.019,-0.02,101.0,102.0,101.0,13.3,1505.2,324.2,-0.8,1.8,2470.494,13.28,0.072,254.8
2021-05-16T08:55:03,42.805,6.029,-0.066,0.001,-0.012,102.0,101.0,100.0,13.3,1505.2,329.7,-0.7,1.8,2470.462,13.28,0.066,270.9
2021-05-16T08:58:03,42.805,6.029,-0.065,-0.01,-0.032,102.0,102.0,100.0,13.4,1505.2,325.6,-0.8,1.8,2470.506,13.28,0.065,261.3
2021-05-16T09:04:03,42.805,6.029,-0.05,-0.017,0.003,101.0,101.0,101.0,13.3,1505.2,324.4,-0.8,1.8,2470.525,13.28,0.052,251.2
2021-05-16T09:07:03,42.805,6.029,-0.049,-0.007,0.005,103.0,101.0,101.0,13.4,1505.2,327.0,-0.8,1.8,2470.542,13.28,0.049,261.9
2021-05-16T09:10:03,42.805,6.029,-0.083,-0.015,-0.009,102.0,101.0,100.0,13.4,1505.2,324.7,-0.7,1.8,2470.492,13.28,0.084,259.8
2021-05-16T09:13:03,42.805,6.029,-0.049,-0.027,-0.014,101.0,101.0,100.0,13.3,1505.2,325.7,-0.8,1.8,2470.484,13.28,0.055,241.1
2021-05-16T09:16:03,42.805,6.029,-0.069,-0.011,0.008,100.0,101.0,101.0,13.4,1505.2,326.6,-0.8,1.8,2470.483,13.28,0.069,260.9
2021-05-16T09:19:03,42.805,6.029,-0.034,-0.021,-0.019,102.0,102.0,101.0,13.4,1505.2,325.0,-0.8,1.8,2470.515,13.28,0.039,238.3
2021-05-16T09:22:03,42.805,6.029,-0.057,-0.01,-0.015,101.0,104.0,101.0,13.4,1505.2,328.0,-0.7,1.8,2470.495,13.28,0.057,260.1
2021-05-16T09:25:03,42.805,6.029,-0.058,-0.02,-0.017,102.0,103.0,101.0,13.4,1505.2,325.6,-0.8,1.8,2470.52,13.28,0.061,251.0
2021-05-16T09:28:03,42.805,6.029,-0.072,-0.002,-0.018,102.0,101.0,100.0,13.3,1505.2,325.6,-0.7,1.8,2470.491,13.28,0.072,268.4
2021-05-16T09:31:03,42.805,6.029,-0.044,-0.02,-0.014,103.0,103.0,99.0,13.4,1505.2,328.1,-0.8,1.8,2470.496,13.28,0.048,245.6
2021-05-16T09:34:03,42.805,6.029,-0.055,-0.006,-0.02,102.0,102.0,101.0,13.3,1505.2,327.7,-0.7,1.8,2470.535,13.28,0.055,263.8
2021-05-16T09:37:03,42.805,6.029,-0.055,-0.029,-0.006,103.0,102.0,101.0,13.3,1505.2,324.2,-0.8,1.8,2470.475,13.28,0.062,242.2
2021-05-16T09:40:03,42.805,6.029,-0.06,-0.049,-0.01,103.0,102.0,100.0,13.3,1505.2,328.1,-0.7,1.8,2470.474,13.28,0.077,230.8
2021-05-16T09:43:03,42.805,6.029,-0.075,-0.015,-0.02,101.0,103.0,100.0,13.4,1505.2,327.7,-0.8,1.8,2470.481,13.28,0.076,258.7
2021-05-16T09:46:03,42.805,6.029,-0.044,-0.02,-0.021,102.0,101.0,100.0,13.4,1505.2,324.3,-0.7,1.8,2470.511,13.28,0.048,245.6
2021-05-16T09:49:03,42.805,6.029,-0.069,-0.011,0.0,102.0,101.0,102.0,13.4,1505.2,327.1,-0.7,1.8,2470.495,13.28,0.069,260.9
2021-05-16T09:52:03,42.805,6.029,-0.042,-0.021,-0.018,102.0,102.0,101.0,13.3,1505.2,328.2,-0.7,1.8,2470.498,13.28,0.046,243.4